Miscellaneous Local Product
Issued by NWS North Platte, NE

Home | Current Version | Previous Version | Text Only | Print | Product List | Glossary On
Versions: 1 2 3 4 5 6 7 8 9 10 11 12 13 14 15 16 17 18 19 20 21 22 23 24 25 26 27 28 29 30 31 32 33 34 35 36 37 38 39 40 41 42 43 44 45 46 47 48 49 50
195
AXUS43 KLBF 260410
MISLBF


WESTERN AND NORTH CENTRAL NEBRASKA HOURLY WEATHER ROUNDUP
NATIONAL WEATHER SERVICE NORTH PLATTE NE
1100 PM CDT THU MAY 25 2017

NOTE: "FAIR" INDICATES FEW OR NO CLOUDS BELOW 12,000 FEET WITH NO
SIGNIFICANT WEATHER AND/OR OBSTRUCTIONS TO VISIBILITY.

NOTE: STATIONS NOT REPORTING VARIABLES SUCH AS SKY/WEATHER OR
PRESSURE ARE PROVIDED BY RAWS AND APRS NETWORKS AND ARE NOT UNDER
NATIONAL WEATHER SERVICE QUALITY CONTROL.

...OBSERVATIONS IN AND NEAR THE EASTERN PANHANDLE OF NEBRASKA...

CITY           SKY/WX    TMP DP  RH WIND       PRES   REMARKS
PINE RIDGE     PTCLDY    56  42  59 N16G25    29.76R
GORDON         FAIR      57  41  54 N17G24    29.75R
CHADRON        MOCLDY    55  41  59 NE10G21   29.78R
ALLIANCE       CLOUDY    50  49  96 W6        29.77R
SIDNEY         CLOUDY    51  49  92 W8        29.80R
CRESCENT LAKE    N/A     54  51  90 CALM        N/A
$$

...OBSERVATIONS IN NORTHERN NEBRASKA AND FAR SOUTHERN SOUTH DAKOTA...

CITY           SKY/WX    TMP DP  RH WIND       PRES   REMARKS
WINNER         FAIR      55  47  74 S6        29.66R
VALENTINE      CLOUDY    56  47  71 NW5       29.71R
THEDFORD       CLOUDY    61  51  70 W5        29.73R
AINSWORTH      CLOUDY    61  49  63 N3        29.70R
O`NEILL        CLOUDY    62  54  74 NW5       29.67R
ORD            MOCLDY    60  54  80 S5        29.65R
BROKEN BOW     MOCLDY    62  56  80 E3        29.66R
HALSEY           N/A     61  51  70 CALM        N/A
BUTTE            N/A     64  51  61 CALM        N/A
CHAMBERS         N/A     61  55  81 CALM        N/A
EWING            N/A     62  54  76 CALM        N/A
$$

...OBSERVATIONS IN SOUTHWEST NEBRASKA AND FAR NORTHEAST COLORADO...

CITY           SKY/WX    TMP DP  RH WIND       PRES   REMARKS
WRAY           FAIR      59  50  72 N21G32    29.75F
IMPERIAL       PTCLDY    59  54  83 NW10      29.74R
OGALLALA       CLOUDY    60  55  85 NW8       29.74R
NORTH PLATTE   MOCLDY    57  56  96 W7        29.70R
MCCOOK         MOCLDY    63  52  67 MISG      29.64R
LEXINGTON      MOCLDY    65  57  76 E6        29.65S
STAPLETON        N/A     59  55  85 CALM        N/A
GOTHENBURG       N/A     66  53  62 E3          N/A
CALLAWAY         N/A     61  56  83 S3          N/A
$$

...OBSERVATIONS IN CENTRAL LINCOLN COUNTY AREA...

CITY           SKY/WX    TMP DP  RH WIND       PRES   REMARKS
N.P. AIRPORT   MOCLDY    57  56  96 W7        29.70R
N.P. DOWNTOWN    N/A     60  56  88 W3          N/A
N.P. SOUTHEAST   N/A     60  55  85 NW3         N/A
N.P. HILLCREST   N/A     59  55  88 NW8         N/A
$$

...SOME OBSERVATIONS FROM AROUND THE REGION...

CITY           SKY/WX    TMP DP  RH WIND       PRES   REMARKS
DENVER         CLOUDY    47  43  86 SE7       29.83R
LIMON          CLEAR     50  46  86 N18G24    29.82R
ASPEN          CLOUDY    50  37  61 S8G18     29.96R
LARAMIE        CLOUDY    45  34  65 NW9       29.90R
CASPER         CLOUDY    47  36  65 NE8       29.88R
CHEYENNE       CLOUDY    50  38  63 N10       29.87R
SCOTTSBLUFF    MOCLDY    56  51  84 CALM      29.78R
GRAND ISLAND   MOCLDY    65  58  78 S6        29.66R
OMAHA          PTCLDY    67  54  63 SE9       29.65R
SIOUX FALLS    CLEAR     56  51  84 CALM      29.64R
PIERRE         CLOUDY    62  41  46 NW18G31   29.66R
RAPID CITY     PTCLDY    51  40  65 N13       29.77R
BISMARCK       CLEAR     57  44  62 W6        29.63R
KANSAS CITY    PTCLDY    67  56  67 E10       29.68R
HILL CITY      CLOUDY    63  57  81 E12       29.62F
WICHITA        PTCLDY    72  62  71 SE13      29.52R
DODGE CITY     CLOUDY    64  56  75 NE31G39   29.59R
OKLAHOMA CITY  CLOUDY    75  59  57 S15       29.54R
DALLAS         MOCLDY    82  59  45 S18       29.62R
AMARILLO       PTCLDY    67  33  28 SW10      29.65R
$$




USA.gov is the U.S. government's official web portal to all federal, state and local government web resources and services.